South Bend, IN

1:52 AM EDT on April 22, 2018 (GMT -0400)
South Bend Regional

Weather History for KSBN - March, 2013

Change the Weather History Date:

Tuesday, March 5, 2013

  Actual Average Record
Temperature  
Mean Temperature 31 °F 33 °F  
Max Temperature 34 °F 42 °F 76 °F (1983)
Min Temperature 28 °F 25 °F 1 °F (1978)
Degree Days  
Heating Degree Days 34 32  
Month to date heating degree days 186 162  
Since 1 July heating degree days 4583 4851  
Cooling Degree Days 0 0  
Month to date cooling degree days 0 0  
Year to date cooling degree days 0 0  
Moisture  
Dew Point 25 °F    
Average Humidity 76    
Maximum Humidity 92    
Minimum Humidity 59    
Precipitation  
Precipitation 0.72 in 0.08 in 0.75 in (1999)
Month to date precipitation 0.72 0.39  
Year to date precipitation 8.21 4.63  
Snow  
Snow 7.70 in 0.30 in 9.00 in (1960)
Month to date snowfall 7.7 1.7  
Since 1 July snowfall 55.4 59.8  
Snow Depth 0.00 in    
Sea Level Pressure  
Sea Level Pressure 29.88 in    
Wind  
Wind Speed 12 mph (ENE)    
Max Wind Speed 20 mph    
Max Gust Speed 25 mph    
Visibility 3 miles    
Events Fog , Snow    
T = Trace of Precipitation, MM = Missing Value Source: NWS Daily Summary

Daily Weather History Graph

Daily Weather History Graph

Search for Another Location

Airport or City:

Astronomy

Mar. 05, 2013 Rise Set
Actual Time 7:13 AM EST 6:40 PM EST
Civil Twilight 6:45 AM EST 7:08 PM EST
Nautical Twilight 6:13 AM EST 7:40 PM EST
Astronomical Twilight 5:41 AM EST 8:13 PM EST
Moon 2:28 AM EST (3/5) 12:15 PM EST (3/5)
Length of Visible Light 12h 23m
Length of Day
11h 27m
Last Quarter, 41% of the Moon is Illuminated
Mar 5
Last Quarter
Mar 11
New
Mar 19
First Quarter
Mar 27
Full
Apr 3
Last Quarter

Hourly Weather History & Observations

Time (EST) Temp. Windchill Dew Point Humidity Pressure Visibility Wind Dir Wind Speed Gust Speed Precip Events Conditions
12:54 AM 30.9 °F 23.5 °F 26.1 °F 82% 30.07 in 2.5 mi East 8.1 mph - 0.01 in Snow Light Snow
1:04 AM 30.2 °F 22.6 °F 26.6 °F 86% 30.03 in 5.0 mi East 8.1 mph - 0.00 in Snow Light Snow
2:54 AM 30.9 °F 23.5 °F 24.1 °F 76% 30.02 in 10.0 mi East 8.1 mph - N/A   Overcast
3:54 AM 32.0 °F 24.2 °F 23.0 °F 69% 29.99 in 10.0 mi East 9.2 mph - N/A   Overcast
4:07 AM 32.0 °F 24.2 °F 21.2 °F 64% 29.96 in 10.0 mi East 9.2 mph - N/A   Overcast
4:54 AM 32.0 °F 23.6 °F 21.0 °F 64% 29.98 in 10.0 mi East 10.4 mph 18.4 mph N/A   Overcast
5:54 AM 32.0 °F 24.2 °F 19.9 °F 61% 29.97 in 10.0 mi East 9.2 mph 16.1 mph N/A   Overcast
6:54 AM 32.0 °F 22.5 °F 21.0 °F 64% 29.96 in 10.0 mi East 12.7 mph 18.4 mph N/A   Overcast
7:54 AM 32.0 °F 20.8 °F 21.0 °F 64% 29.95 in 10.0 mi ESE 17.3 mph 23.0 mph N/A   Overcast
8:54 AM 32.0 °F 21.6 °F 21.0 °F 64% 29.94 in 10.0 mi ESE 15.0 mph - N/A   Overcast
9:54 AM 32.0 °F 21.6 °F 21.9 °F 66% 29.93 in 4.0 mi East 15.0 mph 20.7 mph 0.00 in Snow Light Snow
10:07 AM 32.0 °F 20.8 °F 23.0 °F 69% 29.90 in 2.0 mi ESE 17.3 mph 20.7 mph 0.00 in Snow Light Snow
10:24 AM 32.0 °F 21.6 °F 23.0 °F 69% 29.90 in 5.0 mi ESE 15.0 mph - 0.00 in Snow Light Snow
10:54 AM 33.1 °F 22.6 °F 21.9 °F 64% 29.92 in 10.0 mi ESE 16.1 mph 21.9 mph 0.00 in   Overcast
11:54 AM 33.1 °F 21.5 °F 24.1 °F 70% 29.88 in 3.0 mi ESE 19.6 mph - 0.00 in Snow Light Snow
12:01 PM 33.8 °F 23.2 °F 24.8 °F 70% 29.85 in 2.5 mi East 17.3 mph 24.2 mph 0.00 in Snow Light Snow
12:26 PM 32.0 °F 22.5 °F 26.6 °F 80% 29.84 in 1.5 mi East 12.7 mph 19.6 mph 0.00 in Snow Light Snow
12:54 PM 30.9 °F 21.2 °F 26.1 °F 82% 29.86 in 2.5 mi East 12.7 mph - 0.00 in Snow Light Snow
1:21 PM 30.2 °F 20.8 °F 24.8 °F 80% 29.83 in 2.0 mi East 11.5 mph - 0.00 in Snow Light Snow
1:28 PM 30.2 °F 20.8 °F 24.8 °F 80% 29.82 in 1.2 mi East 11.5 mph - 0.01 in Snow Light Snow
1:41 PM 30.2 °F 22.6 °F 26.6 °F 86% 29.81 in 0.8 mi East 8.1 mph - 0.01 in Snow Light Snow
1:54 PM 30.0 °F 20.5 °F 26.1 °F 85% 29.83 in 0.8 mi East 11.5 mph 21.9 mph 0.02 in Snow Light Snow
1:57 PM 30.2 °F 21.3 °F 26.6 °F 86% 29.80 in 0.5 mi East 10.4 mph 21.9 mph 0.01 in Fog , Snow Snow
2:21 PM 30.2 °F 19.3 °F 26.6 °F 86% 29.79 in 0.2 mi East 15.0 mph 19.6 mph 0.03 in Fog , Snow Snow
2:25 PM 30.2 °F 21.3 °F 26.6 °F 86% 29.79 in 0.5 mi East 10.4 mph 19.6 mph 0.04 in Fog , Snow Snow
2:50 PM 30.2 °F 21.9 °F 26.6 °F 86% 29.79 in 0.8 mi East 9.2 mph - 0.06 in Snow Light Snow
2:54 PM 30.0 °F 22.4 °F 26.1 °F 85% 29.81 in 0.8 mi ENE 8.1 mph - 0.06 in Snow Light Snow
3:54 PM 28.9 °F 19.8 °F 26.1 °F 89% 29.80 in 0.8 mi ENE 10.4 mph - 0.05 in Snow Light Snow
4:54 PM 28.9 °F 21.1 °F 26.1 °F 89% 29.80 in 0.8 mi NE 8.1 mph - 0.05 in Snow Light Snow
5:50 PM 28.4 °F 19.7 °F 24.8 °F 86% 29.78 in 0.2 mi NE 9.2 mph 17.3 mph 0.08 in Fog , Snow Snow
5:54 PM 28.0 °F 18.6 °F 25.0 °F 88% 29.80 in 0.2 mi NE 10.4 mph 17.3 mph 0.09 in Fog , Snow Snow
6:54 PM 28.0 °F 17.5 °F 26.1 °F 92% 29.81 in 0.8 mi NE 12.7 mph 18.4 mph 0.09 in Snow Light Snow
7:54 PM 28.9 °F 20.4 °F 26.1 °F 89% 29.81 in 0.8 mi NE 9.2 mph - 0.10 in Snow Light Snow
8:54 PM 28.9 °F 19.8 °F 27.0 °F 92% 29.82 in 1.0 mi NNE 10.4 mph - 0.06 in Snow Light Snow
9:07 PM 28.4 °F 19.1 °F 26.6 °F 93% 29.79 in 1.0 mi NNE 10.4 mph 18.4 mph 0.01 in Snow Light Snow
9:54 PM 28.9 °F 19.2 °F 26.1 °F 89% 29.85 in 0.8 mi North 11.5 mph - 0.04 in Snow Light Snow
10:03 PM 28.4 °F 18.5 °F 26.6 °F 93% 29.83 in 0.8 mi NNE 11.5 mph - 0.01 in Snow Light Snow
10:11 PM 28.4 °F 18.0 °F 26.6 °F 93% 29.83 in 0.5 mi North 12.7 mph - 0.02 in Fog , Snow Snow
10:54 PM 28.0 °F 17.0 °F 26.1 °F 92% 29.87 in 0.5 mi North 13.8 mph - 0.10 in Fog , Snow Snow
11:12 PM 28.4 °F 17.0 °F 26.6 °F 93% 29.85 in 0.8 mi North 15.0 mph - 0.03 in Snow Light Snow
11:26 PM 28.4 °F 18.5 °F 24.8 °F 86% 29.86 in 1.0 mi North 11.5 mph 21.9 mph 0.03 in Snow Light Snow
11:54 PM 28.0 °F 17.0 °F 25.0 °F 88% 29.89 in 1.0 mi North 13.8 mph - 0.05 in Snow Light Snow